Regional Weather Roundup
Issued by NWS Kansas City/Pleasant Hill, MO

Home | Current Version | Previous Version | Text Only | Print | Product List | Glossary On
Versions: 1 2 3 4 5 6 7 8 9 10 11 12 13 14 15 16 17 18 19 20 21 22 23 24 25 26 27 28 29 30 31 32 33 34 35 36 37 38 39 40 41 42 43 44 45 46 47 48 49 50
000
ASUS43 KEAX 302110
RWREAX

WEATHER ROUNDUP FOR EASTERN KANSAS AND NORTHWEST MISSOURI
NATIONAL WEATHER SERVICE KANSAS CITY/PLEASANT HILL MO
400 PM CDT THU OCT 30 2014

KSZ040-057-103>105-MOZ028-029-037-043-302200-
...KANSAS CITY METROPOLITAN AREA...

CITY           SKY/WX    TMP DP  RH WIND       PRES   REMARKS
K.C. INTL      MOSUNNY   66  41  40 NW20G25   30.02R
K.C. DOWNTOWN  SUNNY     69  39  33 NW14G28   30.01R
LEES SUMMIT    SUNNY     67  39  35 NW17      30.01R
OLATHE - IXD   SUNNY     66  40  38 NW20      30.04R
OLATHE - OJC   SUNNY     67  40  37 N15G26    30.02R
LAWRENCE       SUNNY     67  41  38 NW21G29   30.04R

$$

MOZ001>008-011>017-020>025-030>033-038>040-044>046-053-054-302200-
...NORTHERN AND CENTRAL MISSOURI...

CITY           SKY/WX    TMP DP  RH WIND       PRES   REMARKS
ST. JOSEPH     SUNNY     67  41  38 N17       30.03R
MOSBY          CLEAR     66  37  34 NW14G20   30.01R
WHITEMAN AFB   SUNNY     66  42  41 W14       29.98R
CLINTON        SUNNY     70  43  37 NW15      29.99R
SEDALIA        SUNNY     66  46  48 NW9       29.99R
WARSAW         NOT AVBL
MARSHALL       SUNNY     68  46  45 NW10      29.99R
CHILLICOTHE      N/A     66  43  43 N8        30.00R
MOBERLY        SUNNY     64  41  42 SW5       29.98S
KIRKSVILLE     SUNNY     64  44  48 VRB3      29.98R

$$

MOZ041-047>049-056>058-063>065-088>090-097-302200-
...EASTERN AND SOUTHERN MISSOURI...

CITY           SKY/WX    TMP DP  RH WIND       PRES   REMARKS
ST. LOUIS INTL LGT RAIN  58  42  55 SE10      30.00F
SPIRIT OF STL  CLOUDY    55  45  68 E7        29.98F
COLUMBIA       MOSUNNY   59  48  67 SW9       29.99S
JEFFERSON CITY PTSUNNY   58  47  66 S6        29.99F
MEXICO         MOSUNNY   61  50  67 SW12      29.98F
HANNIBAL       MOSUNNY   61  41  48 S7        29.98S
ROLLA          RAIN      49  45  86 SE17      29.95F FOG
LEBANON        SUNNY     64  46  52 W8        29.99F
OSAGE BEACH    MOSUNNY   61  46  59 SE6       29.99R
SPRINGFIELD    SUNNY     66  42  41 W17       29.99S
BRANSON        MOSUNNY   68  45  42 W9G16     30.01S
JOPLIN         SUNNY     70  39  32 NW20G28   30.03S
WEST PLAINS    CLOUDY    59  40  49 S5        30.02R

$$

IAZ060-094-KSZ022-034>040-054-083-096-NEZ052-066-093-302200-
...KANSAS...SOUTHEAST NEBRASKA AND IOWA...

CITY           SKY/WX    TMP DP  RH WIND       PRES   REMARKS
TOPEKA         SUNNY     69  40  34 N18G24    30.06R
MANHATTAN      SUNNY     70  37  29 N15G22    30.09S
EMPORIA        SUNNY     70  35  27 N18G32    30.07S
CHANUTE        SUNNY     71  37  28 N18G25    30.05R
WICHITA        MOSUNNY   73  35  25 NW18      30.11S
OMAHA          MOSUNNY   62  40  44 NW24G33   30.09R
LINCOLN        SUNNY     64  40  41 NW18G31   30.13R
FALLS CITY     SUNNY     65  40  39 NW20G33   30.06R
LAMONI         SUNNY     62  42  47 NW12      30.00R
DES MOINES     MOSUNNY   63  39  41 N9        30.02R

$$




USA.gov is the U.S. government's official web portal to all federal, state and local government web resources and services.